Index of /20260420/WXO-DD/model_rdps/10km/00/039
Name Last modified Size Description
Parent Directory -
20260420T00Z_MSC_RDPS_AbsoluteVorticity_IsbL-0250_RLatLon0.09_PT039H.grib2 2026-04-20 02:50 604K
20260420T00Z_MSC_RDPS_AbsoluteVorticity_IsbL-0500_RLatLon0.09_PT039H.grib2 2026-04-20 02:50 708K
20260420T00Z_MSC_RDPS_AbsoluteVorticity_IsbL-0700_RLatLon0.09_PT039H.grib2 2026-04-20 02:50 622K
20260420T00Z_MSC_RDPS_AbsoluteVorticity_IsbL-0850_RLatLon0.09_PT039H.grib2 2026-04-20 02:50 789K
20260420T00Z_MSC_RDPS_AirTemp_AGL-120m_RLatLon0.09_PT039H.grib2 2026-04-20 02:50 391K
20260420T00Z_MSC_RDPS_AirTemp_AGL-2m_RLatLon0.09_PT039H.grib2 2026-04-20 02:50 651K
20260420T00Z_MSC_RDPS_AirTemp_AGL-40m_RLatLon0.09_PT039H.grib2 2026-04-20 02:50 406K
20260420T00Z_MSC_RDPS_AirTemp_AGL-80m_RLatLon0.09_PT039H.grib2 2026-04-20 02:50 399K
20260420T00Z_MSC_RDPS_AirTemp_IsbL-0001_RLatLon0.09_PT039H.grib2 2026-04-20 02:50 268K
20260420T00Z_MSC_RDPS_AirTemp_IsbL-0005_RLatLon0.09_PT039H.grib2 2026-04-20 02:50 334K
20260420T00Z_MSC_RDPS_AirTemp_IsbL-0010_RLatLon0.09_PT039H.grib2 2026-04-20 02:50 307K
20260420T00Z_MSC_RDPS_AirTemp_IsbL-0020_RLatLon0.09_PT039H.grib2 2026-04-20 02:50 329K
20260420T00Z_MSC_RDPS_AirTemp_IsbL-0030_RLatLon0.09_PT039H.grib2 2026-04-20 02:50 348K
20260420T00Z_MSC_RDPS_AirTemp_IsbL-0050_RLatLon0.09_PT039H.grib2 2026-04-20 02:50 331K
20260420T00Z_MSC_RDPS_AirTemp_IsbL-0100_RLatLon0.09_PT039H.grib2 2026-04-20 02:50 435K
20260420T00Z_MSC_RDPS_AirTemp_IsbL-0150_RLatLon0.09_PT039H.grib2 2026-04-20 02:50 426K
20260420T00Z_MSC_RDPS_AirTemp_IsbL-0175_RLatLon0.09_PT039H.grib2 2026-04-20 02:50 421K
20260420T00Z_MSC_RDPS_AirTemp_IsbL-0200_RLatLon0.09_PT039H.grib2 2026-04-20 02:50 423K
20260420T00Z_MSC_RDPS_AirTemp_IsbL-0225_RLatLon0.09_PT039H.grib2 2026-04-20 02:50 418K
20260420T00Z_MSC_RDPS_AirTemp_IsbL-0250_RLatLon0.09_PT039H.grib2 2026-04-20 02:50 416K
20260420T00Z_MSC_RDPS_AirTemp_IsbL-0275_RLatLon0.09_PT039H.grib2 2026-04-20 02:50 397K
20260420T00Z_MSC_RDPS_AirTemp_IsbL-0300_RLatLon0.09_PT039H.grib2 2026-04-20 02:50 429K
20260420T00Z_MSC_RDPS_AirTemp_IsbL-0350_RLatLon0.09_PT039H.grib2 2026-04-20 02:50 419K
20260420T00Z_MSC_RDPS_AirTemp_IsbL-0400_RLatLon0.09_PT039H.grib2 2026-04-20 02:50 425K
20260420T00Z_MSC_RDPS_AirTemp_IsbL-0450_RLatLon0.09_PT039H.grib2 2026-04-20 02:50 400K
20260420T00Z_MSC_RDPS_AirTemp_IsbL-0500_RLatLon0.09_PT039H.grib2 2026-04-20 02:50 413K
20260420T00Z_MSC_RDPS_AirTemp_IsbL-0550_RLatLon0.09_PT039H.grib2 2026-04-20 02:50 432K
20260420T00Z_MSC_RDPS_AirTemp_IsbL-0600_RLatLon0.09_PT039H.grib2 2026-04-20 02:50 449K
20260420T00Z_MSC_RDPS_AirTemp_IsbL-0650_RLatLon0.09_PT039H.grib2 2026-04-20 02:50 463K
20260420T00Z_MSC_RDPS_AirTemp_IsbL-0700_RLatLon0.09_PT039H.grib2 2026-04-20 02:50 486K
20260420T00Z_MSC_RDPS_AirTemp_IsbL-0750_RLatLon0.09_PT039H.grib2 2026-04-20 02:50 529K
20260420T00Z_MSC_RDPS_AirTemp_IsbL-0800_RLatLon0.09_PT039H.grib2 2026-04-20 02:50 589K
20260420T00Z_MSC_RDPS_AirTemp_IsbL-0850_RLatLon0.09_PT039H.grib2 2026-04-20 02:50 643K
20260420T00Z_MSC_RDPS_AirTemp_IsbL-0875_RLatLon0.09_PT039H.grib2 2026-04-20 02:50 526K
20260420T00Z_MSC_RDPS_AirTemp_IsbL-0900_RLatLon0.09_PT039H.grib2 2026-04-20 02:50 529K
20260420T00Z_MSC_RDPS_AirTemp_IsbL-0925_RLatLon0.09_PT039H.grib2 2026-04-20 02:50 529K
20260420T00Z_MSC_RDPS_AirTemp_IsbL-0950_RLatLon0.09_PT039H.grib2 2026-04-20 02:50 532K
20260420T00Z_MSC_RDPS_AirTemp_IsbL-0970_RLatLon0.09_PT039H.grib2 2026-04-20 02:50 535K
20260420T00Z_MSC_RDPS_AirTemp_IsbL-0985_RLatLon0.09_PT039H.grib2 2026-04-20 02:50 528K
20260420T00Z_MSC_RDPS_AirTemp_IsbL-1000_RLatLon0.09_PT039H.grib2 2026-04-20 02:50 514K
20260420T00Z_MSC_RDPS_AirTemp_IsbL-1015_RLatLon0.09_PT039H.grib2 2026-04-20 02:50 521K
20260420T00Z_MSC_RDPS_Albedo_Sfc_RLatLon0.09_PT039H.grib2 2026-04-20 02:50 166K
20260420T00Z_MSC_RDPS_CAPE_Sfc_RLatLon0.09_PT039H.grib2 2026-04-20 02:50 1.6M
20260420T00Z_MSC_RDPS_CIN_Sfc_RLatLon0.09_PT039H.grib2 2026-04-20 02:50 1.1M
20260420T00Z_MSC_RDPS_CloudWater_EAtm_RLatLon0.09_PT039H.grib2 2026-04-20 02:50 215K
20260420T00Z_MSC_RDPS_ConvectivePrecip-Accum_Sfc_RLatLon0.09_PT039H.grib2 2026-04-20 02:50 1.0M
20260420T00Z_MSC_RDPS_DewPointDepression_AGL-2m_RLatLon0.09_PT039H.grib2 2026-04-20 02:50 414K
20260420T00Z_MSC_RDPS_DewPointDepression_IsbL-0001_RLatLon0.09_PT039H.grib2 2026-04-20 02:50 193
20260420T00Z_MSC_RDPS_DewPointDepression_IsbL-0005_RLatLon0.09_PT039H.grib2 2026-04-20 02:50 193
20260420T00Z_MSC_RDPS_DewPointDepression_IsbL-0010_RLatLon0.09_PT039H.grib2 2026-04-20 02:50 193
20260420T00Z_MSC_RDPS_DewPointDepression_IsbL-0020_RLatLon0.09_PT039H.grib2 2026-04-20 02:50 193
20260420T00Z_MSC_RDPS_DewPointDepression_IsbL-0030_RLatLon0.09_PT039H.grib2 2026-04-20 02:50 193
20260420T00Z_MSC_RDPS_DewPointDepression_IsbL-0050_RLatLon0.09_PT039H.grib2 2026-04-20 02:50 96K
20260420T00Z_MSC_RDPS_DewPointDepression_IsbL-0100_RLatLon0.09_PT039H.grib2 2026-04-20 02:50 124K
20260420T00Z_MSC_RDPS_DewPointDepression_IsbL-0150_RLatLon0.09_PT039H.grib2 2026-04-20 02:50 151K
20260420T00Z_MSC_RDPS_DewPointDepression_IsbL-0175_RLatLon0.09_PT039H.grib2 2026-04-20 02:50 186K
20260420T00Z_MSC_RDPS_DewPointDepression_IsbL-0200_RLatLon0.09_PT039H.grib2 2026-04-20 02:50 229K
20260420T00Z_MSC_RDPS_DewPointDepression_IsbL-0225_RLatLon0.09_PT039H.grib2 2026-04-20 02:50 258K
20260420T00Z_MSC_RDPS_DewPointDepression_IsbL-0250_RLatLon0.09_PT039H.grib2 2026-04-20 02:50 292K
20260420T00Z_MSC_RDPS_DewPointDepression_IsbL-0275_RLatLon0.09_PT039H.grib2 2026-04-20 02:50 303K
20260420T00Z_MSC_RDPS_DewPointDepression_IsbL-0300_RLatLon0.09_PT039H.grib2 2026-04-20 02:50 325K
20260420T00Z_MSC_RDPS_DewPointDepression_IsbL-0350_RLatLon0.09_PT039H.grib2 2026-04-20 02:50 336K
20260420T00Z_MSC_RDPS_DewPointDepression_IsbL-0400_RLatLon0.09_PT039H.grib2 2026-04-20 02:50 348K
20260420T00Z_MSC_RDPS_DewPointDepression_IsbL-0450_RLatLon0.09_PT039H.grib2 2026-04-20 02:50 356K
20260420T00Z_MSC_RDPS_DewPointDepression_IsbL-0500_RLatLon0.09_PT039H.grib2 2026-04-20 02:50 369K
20260420T00Z_MSC_RDPS_DewPointDepression_IsbL-0550_RLatLon0.09_PT039H.grib2 2026-04-20 02:50 385K
20260420T00Z_MSC_RDPS_DewPointDepression_IsbL-0600_RLatLon0.09_PT039H.grib2 2026-04-20 02:50 397K
20260420T00Z_MSC_RDPS_DewPointDepression_IsbL-0650_RLatLon0.09_PT039H.grib2 2026-04-20 02:50 391K
20260420T00Z_MSC_RDPS_DewPointDepression_IsbL-0700_RLatLon0.09_PT039H.grib2 2026-04-20 02:50 393K
20260420T00Z_MSC_RDPS_DewPointDepression_IsbL-0750_RLatLon0.09_PT039H.grib2 2026-04-20 02:50 415K
20260420T00Z_MSC_RDPS_DewPointDepression_IsbL-0800_RLatLon0.09_PT039H.grib2 2026-04-20 02:50 452K
20260420T00Z_MSC_RDPS_DewPointDepression_IsbL-0850_RLatLon0.09_PT039H.grib2 2026-04-20 02:50 473K
20260420T00Z_MSC_RDPS_DewPointDepression_IsbL-0875_RLatLon0.09_PT039H.grib2 2026-04-20 02:50 465K
20260420T00Z_MSC_RDPS_DewPointDepression_IsbL-0900_RLatLon0.09_PT039H.grib2 2026-04-20 02:50 455K
20260420T00Z_MSC_RDPS_DewPointDepression_IsbL-0925_RLatLon0.09_PT039H.grib2 2026-04-20 02:50 446K
20260420T00Z_MSC_RDPS_DewPointDepression_IsbL-0950_RLatLon0.09_PT039H.grib2 2026-04-20 02:50 444K
20260420T00Z_MSC_RDPS_DewPointDepression_IsbL-0970_RLatLon0.09_PT039H.grib2 2026-04-20 02:50 444K
20260420T00Z_MSC_RDPS_DewPointDepression_IsbL-0985_RLatLon0.09_PT039H.grib2 2026-04-20 02:50 442K
20260420T00Z_MSC_RDPS_DewPointDepression_IsbL-1000_RLatLon0.09_PT039H.grib2 2026-04-20 02:50 438K
20260420T00Z_MSC_RDPS_DewPointDepression_IsbL-1015_RLatLon0.09_PT039H.grib2 2026-04-20 02:50 431K
20260420T00Z_MSC_RDPS_DewPoint_AGL-2m_RLatLon0.09_PT039H.grib2 2026-04-20 02:50 409K
20260420T00Z_MSC_RDPS_DownwardLongwaveRadiationFlux-Accum_Sfc_RLatLon0.09_PT039H.grib2 2026-04-20 02:50 374K
20260420T00Z_MSC_RDPS_DownwardShortwaveRadiationFlux-Accum_NTAtm_RLatLon0.09_PT039H.grib2 2026-04-20 02:50 144K
20260420T00Z_MSC_RDPS_DownwardShortwaveRadiationFlux-Accum_Sfc_RLatLon0.09_PT039H.grib2 2026-04-20 02:50 527K
20260420T00Z_MSC_RDPS_FreezingRain-Accum1h_Sfc_RLatLon0.09_PT039H.grib2 2026-04-20 02:50 19K
20260420T00Z_MSC_RDPS_FreezingRain-Accum3h_Sfc_RLatLon0.09_PT039H.grib2 2026-04-20 02:50 24K
20260420T00Z_MSC_RDPS_FreezingRain-Accum_Sfc_RLatLon0.09_PT039H.grib2 2026-04-20 02:50 121K
20260420T00Z_MSC_RDPS_GeopotentialHeight_IsbL-0001_RLatLon0.09_PT039H.grib2 2026-04-20 02:50 276K
20260420T00Z_MSC_RDPS_GeopotentialHeight_IsbL-0005_RLatLon0.09_PT039H.grib2 2026-04-20 02:50 240K
20260420T00Z_MSC_RDPS_GeopotentialHeight_IsbL-0010_RLatLon0.09_PT039H.grib2 2026-04-20 02:50 316K
20260420T00Z_MSC_RDPS_GeopotentialHeight_IsbL-0020_RLatLon0.09_PT039H.grib2 2026-04-20 02:50 312K
20260420T00Z_MSC_RDPS_GeopotentialHeight_IsbL-0030_RLatLon0.09_PT039H.grib2 2026-04-20 02:50 313K
20260420T00Z_MSC_RDPS_GeopotentialHeight_IsbL-0050_RLatLon0.09_PT039H.grib2 2026-04-20 02:50 348K
20260420T00Z_MSC_RDPS_GeopotentialHeight_IsbL-0100_RLatLon0.09_PT039H.grib2 2026-04-20 02:50 292K
20260420T00Z_MSC_RDPS_GeopotentialHeight_IsbL-0150_RLatLon0.09_PT039H.grib2 2026-04-20 02:50 263K
20260420T00Z_MSC_RDPS_GeopotentialHeight_IsbL-0175_RLatLon0.09_PT039H.grib2 2026-04-20 02:50 265K
20260420T00Z_MSC_RDPS_GeopotentialHeight_IsbL-0200_RLatLon0.09_PT039H.grib2 2026-04-20 02:50 267K
20260420T00Z_MSC_RDPS_GeopotentialHeight_IsbL-0225_RLatLon0.09_PT039H.grib2 2026-04-20 02:50 268K
20260420T00Z_MSC_RDPS_GeopotentialHeight_IsbL-0250_RLatLon0.09_PT039H.grib2 2026-04-20 02:50 269K
20260420T00Z_MSC_RDPS_GeopotentialHeight_IsbL-0275_RLatLon0.09_PT039H.grib2 2026-04-20 02:50 267K
20260420T00Z_MSC_RDPS_GeopotentialHeight_IsbL-0300_RLatLon0.09_PT039H.grib2 2026-04-20 02:50 266K
20260420T00Z_MSC_RDPS_GeopotentialHeight_IsbL-0350_RLatLon0.09_PT039H.grib2 2026-04-20 02:50 263K
20260420T00Z_MSC_RDPS_GeopotentialHeight_IsbL-0400_RLatLon0.09_PT039H.grib2 2026-04-20 02:50 231K
20260420T00Z_MSC_RDPS_GeopotentialHeight_IsbL-0450_RLatLon0.09_PT039H.grib2 2026-04-20 02:50 301K
20260420T00Z_MSC_RDPS_GeopotentialHeight_IsbL-0500_RLatLon0.09_PT039H.grib2 2026-04-20 02:50 297K
20260420T00Z_MSC_RDPS_GeopotentialHeight_IsbL-0550_RLatLon0.09_PT039H.grib2 2026-04-20 02:50 293K
20260420T00Z_MSC_RDPS_GeopotentialHeight_IsbL-0600_RLatLon0.09_PT039H.grib2 2026-04-20 02:50 287K
20260420T00Z_MSC_RDPS_GeopotentialHeight_IsbL-0650_RLatLon0.09_PT039H.grib2 2026-04-20 02:50 258K
20260420T00Z_MSC_RDPS_GeopotentialHeight_IsbL-0700_RLatLon0.09_PT039H.grib2 2026-04-20 02:50 255K
20260420T00Z_MSC_RDPS_GeopotentialHeight_IsbL-0750_RLatLon0.09_PT039H.grib2 2026-04-20 02:50 258K
20260420T00Z_MSC_RDPS_GeopotentialHeight_IsbL-0800_RLatLon0.09_PT039H.grib2 2026-04-20 02:50 264K
20260420T00Z_MSC_RDPS_GeopotentialHeight_IsbL-0850_RLatLon0.09_PT039H.grib2 2026-04-20 02:50 359K
20260420T00Z_MSC_RDPS_GeopotentialHeight_IsbL-0875_RLatLon0.09_PT039H.grib2 2026-04-20 02:50 360K
20260420T00Z_MSC_RDPS_GeopotentialHeight_IsbL-0900_RLatLon0.09_PT039H.grib2 2026-04-20 02:50 366K
20260420T00Z_MSC_RDPS_GeopotentialHeight_IsbL-0925_RLatLon0.09_PT039H.grib2 2026-04-20 02:50 369K
20260420T00Z_MSC_RDPS_GeopotentialHeight_IsbL-0950_RLatLon0.09_PT039H.grib2 2026-04-20 02:50 372K
20260420T00Z_MSC_RDPS_GeopotentialHeight_IsbL-0970_RLatLon0.09_PT039H.grib2 2026-04-20 02:50 378K
20260420T00Z_MSC_RDPS_GeopotentialHeight_IsbL-0985_RLatLon0.09_PT039H.grib2 2026-04-20 02:50 390K
20260420T00Z_MSC_RDPS_GeopotentialHeight_IsbL-1000_RLatLon0.09_PT039H.grib2 2026-04-20 02:50 404K
20260420T00Z_MSC_RDPS_GeopotentialHeight_IsbL-1015_RLatLon0.09_PT039H.grib2 2026-04-20 02:50 420K
20260420T00Z_MSC_RDPS_Humidex_Sfc_RLatLon0.09_PT039H.grib2 2026-04-20 02:50 2.4M
20260420T00Z_MSC_RDPS_IcePellets-Accum1h_Sfc_RLatLon0.09_PT039H.grib2 2026-04-20 02:50 2.8K
20260420T00Z_MSC_RDPS_IcePellets-Accum3h_Sfc_RLatLon0.09_PT039H.grib2 2026-04-20 02:50 2.7K
20260420T00Z_MSC_RDPS_IcePellets-Accum_Sfc_RLatLon0.09_PT039H.grib2 2026-04-20 02:50 19K
20260420T00Z_MSC_RDPS_KIndex_Sfc_RLatLon0.09_PT039H.grib2 2026-04-20 02:50 2.4M
20260420T00Z_MSC_RDPS_LatentHeatNetFlux_Sfc_RLatLon0.09_PT039H.grib2 2026-04-20 02:50 288K
20260420T00Z_MSC_RDPS_LiftedIndex-MU-VT_IsbL-0500_RLatLon0.09_PT039H.grib2 2026-04-20 02:50 2.4M
20260420T00Z_MSC_RDPS_NetLongwaveRadiationFlux-Accum_Sfc_RLatLon0.09_PT039H.grib2 2026-04-20 02:50 506K
20260420T00Z_MSC_RDPS_NetShortwaveRadiationFlux-Accum_Sfc_RLatLon0.09_PT039H.grib2 2026-04-20 02:50 540K
20260420T00Z_MSC_RDPS_PlanetaryBoundaryLayerHeight_Sfc_RLatLon0.09_PT039H.grib2 2026-04-20 02:50 1.2M
20260420T00Z_MSC_RDPS_Precip-Accum1h_Sfc_RLatLon0.09_PT039H.grib2 2026-04-20 02:50 1.2M
20260420T00Z_MSC_RDPS_Precip-Accum3h_Sfc_RLatLon0.09_PT039H.grib2 2026-04-20 02:50 1.3M
20260420T00Z_MSC_RDPS_Precip-Accum_Sfc_RLatLon0.09_PT039H.grib2 2026-04-20 02:50 1.8M
20260420T00Z_MSC_RDPS_PrecipRate_Sfc_RLatLon0.09_PT039H.grib2 2026-04-20 02:50 167K
20260420T00Z_MSC_RDPS_PrecipType-Instant_Sfc_RLatLon0.09_PT039H.grib2 2026-04-20 02:50 575K
20260420T00Z_MSC_RDPS_Pressure-Trend3h_Sfc_RLatLon0.09_PT039H.grib2 2026-04-20 02:50 1.2M
20260420T00Z_MSC_RDPS_Pressure_MSL_RLatLon0.09_PT039H.grib2 2026-04-20 02:50 302K
20260420T00Z_MSC_RDPS_Pressure_PVU-1.5_RLatLon0.09_PT039H.grib2 2026-04-20 02:50 2.5M
20260420T00Z_MSC_RDPS_Pressure_PVU-1_RLatLon0.09_PT039H.grib2 2026-04-20 02:50 2.4M
20260420T00Z_MSC_RDPS_Pressure_PVU-2_RLatLon0.09_PT039H.grib2 2026-04-20 02:50 2.4M
20260420T00Z_MSC_RDPS_Pressure_Sfc_RLatLon0.09_PT039H.grib2 2026-04-20 02:50 504K
20260420T00Z_MSC_RDPS_RadiativeTemp_Sfc_RLatLon0.09_PT039H.grib2 2026-04-20 02:50 322K
20260420T00Z_MSC_RDPS_Rain-Accum1h_Sfc_RLatLon0.09_PT039H.grib2 2026-04-20 02:50 552K
20260420T00Z_MSC_RDPS_Rain-Accum3h_Sfc_RLatLon0.09_PT039H.grib2 2026-04-20 02:50 650K
20260420T00Z_MSC_RDPS_Rain-Accum_Sfc_RLatLon0.09_PT039H.grib2 2026-04-20 02:50 1.5M
20260420T00Z_MSC_RDPS_RelativeHumidity_AGL-2m_RLatLon0.09_PT039H.grib2 2026-04-20 02:50 1.0M
20260420T00Z_MSC_RDPS_RelativeHumidity_IsbL-0010_RLatLon0.09_PT039H.grib2 2026-04-20 02:50 635K
20260420T00Z_MSC_RDPS_RelativeHumidity_IsbL-0020_RLatLon0.09_PT039H.grib2 2026-04-20 02:50 575K
20260420T00Z_MSC_RDPS_RelativeHumidity_IsbL-0030_RLatLon0.09_PT039H.grib2 2026-04-20 02:50 549K
20260420T00Z_MSC_RDPS_RelativeHumidity_IsbL-0050_RLatLon0.09_PT039H.grib2 2026-04-20 02:50 389K
20260420T00Z_MSC_RDPS_RelativeHumidity_IsbL-0100_RLatLon0.09_PT039H.grib2 2026-04-20 02:50 378K
20260420T00Z_MSC_RDPS_RelativeHumidity_IsbL-0150_RLatLon0.09_PT039H.grib2 2026-04-20 02:50 376K
20260420T00Z_MSC_RDPS_RelativeHumidity_IsbL-0175_RLatLon0.09_PT039H.grib2 2026-04-20 02:50 465K
20260420T00Z_MSC_RDPS_RelativeHumidity_IsbL-0200_RLatLon0.09_PT039H.grib2 2026-04-20 02:50 561K
20260420T00Z_MSC_RDPS_RelativeHumidity_IsbL-0225_RLatLon0.09_PT039H.grib2 2026-04-20 02:50 631K
20260420T00Z_MSC_RDPS_RelativeHumidity_IsbL-0250_RLatLon0.09_PT039H.grib2 2026-04-20 02:50 686K
20260420T00Z_MSC_RDPS_RelativeHumidity_IsbL-0275_RLatLon0.09_PT039H.grib2 2026-04-20 02:50 705K
20260420T00Z_MSC_RDPS_RelativeHumidity_IsbL-0300_RLatLon0.09_PT039H.grib2 2026-04-20 02:50 745K
20260420T00Z_MSC_RDPS_RelativeHumidity_IsbL-0350_RLatLon0.09_PT039H.grib2 2026-04-20 02:50 768K
20260420T00Z_MSC_RDPS_RelativeHumidity_IsbL-0400_RLatLon0.09_PT039H.grib2 2026-04-20 02:50 787K
20260420T00Z_MSC_RDPS_RelativeHumidity_IsbL-0450_RLatLon0.09_PT039H.grib2 2026-04-20 02:50 798K
20260420T00Z_MSC_RDPS_RelativeHumidity_IsbL-0500_RLatLon0.09_PT039H.grib2 2026-04-20 02:50 825K
20260420T00Z_MSC_RDPS_RelativeHumidity_IsbL-0550_RLatLon0.09_PT039H.grib2 2026-04-20 02:50 850K
20260420T00Z_MSC_RDPS_RelativeHumidity_IsbL-0600_RLatLon0.09_PT039H.grib2 2026-04-20 02:50 870K
20260420T00Z_MSC_RDPS_RelativeHumidity_IsbL-0650_RLatLon0.09_PT039H.grib2 2026-04-20 02:50 870K
20260420T00Z_MSC_RDPS_RelativeHumidity_IsbL-0700_RLatLon0.09_PT039H.grib2 2026-04-20 02:50 878K
20260420T00Z_MSC_RDPS_RelativeHumidity_IsbL-0750_RLatLon0.09_PT039H.grib2 2026-04-20 02:50 919K
20260420T00Z_MSC_RDPS_RelativeHumidity_IsbL-0800_RLatLon0.09_PT039H.grib2 2026-04-20 02:50 1.0M
20260420T00Z_MSC_RDPS_RelativeHumidity_IsbL-0850_RLatLon0.09_PT039H.grib2 2026-04-20 02:50 1.0M
20260420T00Z_MSC_RDPS_RelativeHumidity_IsbL-0875_RLatLon0.09_PT039H.grib2 2026-04-20 02:50 1.1M
20260420T00Z_MSC_RDPS_RelativeHumidity_IsbL-0900_RLatLon0.09_PT039H.grib2 2026-04-20 02:50 1.1M
20260420T00Z_MSC_RDPS_RelativeHumidity_IsbL-0925_RLatLon0.09_PT039H.grib2 2026-04-20 02:50 1.1M
20260420T00Z_MSC_RDPS_RelativeHumidity_IsbL-0950_RLatLon0.09_PT039H.grib2 2026-04-20 02:50 1.1M
20260420T00Z_MSC_RDPS_RelativeHumidity_IsbL-0970_RLatLon0.09_PT039H.grib2 2026-04-20 02:50 1.1M
20260420T00Z_MSC_RDPS_RelativeHumidity_IsbL-0985_RLatLon0.09_PT039H.grib2 2026-04-20 02:50 1.0M
20260420T00Z_MSC_RDPS_RelativeHumidity_IsbL-1000_RLatLon0.09_PT039H.grib2 2026-04-20 02:50 1.0M
20260420T00Z_MSC_RDPS_RelativeHumidity_IsbL-1015_RLatLon0.09_PT039H.grib2 2026-04-20 02:50 1.0M
20260420T00Z_MSC_RDPS_Runoff-Accum_Sfc_RLatLon0.09_PT039H.grib2 2026-04-20 02:50 63K
20260420T00Z_MSC_RDPS_SWEATIndex_Sfc_RLatLon0.09_PT039H.grib2 2026-04-20 02:50 2.4M
20260420T00Z_MSC_RDPS_SeeingIndex_EAtm_RLatLon0.09_PT039H.grib2 2026-04-20 02:50 1.0M
20260420T00Z_MSC_RDPS_SensibleHeatNetFlux_Sfc_RLatLon0.09_PT039H.grib2 2026-04-20 02:50 364K
20260420T00Z_MSC_RDPS_ShowalterIndex_IsbL-0500_RLatLon0.09_PT039H.grib2 2026-04-20 02:50 2.6M
20260420T00Z_MSC_RDPS_SkyTransparencyIndex_EAtm_RLatLon0.09_PT039H.grib2 2026-04-20 02:50 734K
20260420T00Z_MSC_RDPS_Snow-Accum1h_Sfc_RLatLon0.09_PT039H.grib2 2026-04-20 02:50 302K
20260420T00Z_MSC_RDPS_Snow-Accum3h_Sfc_RLatLon0.09_PT039H.grib2 2026-04-20 02:50 270K
20260420T00Z_MSC_RDPS_Snow-Accum_Sfc_RLatLon0.09_PT039H.grib2 2026-04-20 02:50 615K
20260420T00Z_MSC_RDPS_SnowDensity_Sfc_RLatLon0.09_PT039H.grib2 2026-04-20 02:50 173K
20260420T00Z_MSC_RDPS_SnowDepth_Sfc_RLatLon0.09_PT039H.grib2 2026-04-20 02:50 705K
20260420T00Z_MSC_RDPS_SoilTemp_DBS-0to10cm_RLatLon0.09_PT039H.grib2 2026-04-20 02:50 235K
20260420T00Z_MSC_RDPS_SoilTemp_Sfc_RLatLon0.09_PT039H.grib2 2026-04-20 02:50 288K
20260420T00Z_MSC_RDPS_SoilVolumetricIceContent_Sfc_RLatLon0.09_PT039H.grib2 2026-04-20 02:50 171K
20260420T00Z_MSC_RDPS_SoilVolumetricWaterContent_DBS-0to10cm_RLatLon0.09_PT039H.grib2 2026-04-20 02:50 250K
20260420T00Z_MSC_RDPS_SoilVolumetricWaterContent_DBS-0to1cm_RLatLon0.09_PT039H.grib2 2026-04-20 02:50 337K
20260420T00Z_MSC_RDPS_SpecificHumidity_AGL-120m_RLatLon0.09_PT039H.grib2 2026-04-20 02:50 485K
20260420T00Z_MSC_RDPS_SpecificHumidity_AGL-2m_RLatLon0.09_PT039H.grib2 2026-04-20 02:50 652K
20260420T00Z_MSC_RDPS_SpecificHumidity_AGL-40m_RLatLon0.09_PT039H.grib2 2026-04-20 02:50 493K
20260420T00Z_MSC_RDPS_SpecificHumidity_AGL-80m_RLatLon0.09_PT039H.grib2 2026-04-20 02:50 489K
20260420T00Z_MSC_RDPS_SpecificHumidity_IsbL-0001_RLatLon0.09_PT039H.grib2 2026-04-20 02:50 326K
20260420T00Z_MSC_RDPS_SpecificHumidity_IsbL-0005_RLatLon0.09_PT039H.grib2 2026-04-20 02:50 340K
20260420T00Z_MSC_RDPS_SpecificHumidity_IsbL-0010_RLatLon0.09_PT039H.grib2 2026-04-20 02:50 377K
20260420T00Z_MSC_RDPS_SpecificHumidity_IsbL-0020_RLatLon0.09_PT039H.grib2 2026-04-20 02:50 374K
20260420T00Z_MSC_RDPS_SpecificHumidity_IsbL-0030_RLatLon0.09_PT039H.grib2 2026-04-20 02:50 473K
20260420T00Z_MSC_RDPS_SpecificHumidity_IsbL-0050_RLatLon0.09_PT039H.grib2 2026-04-20 02:50 469K
20260420T00Z_MSC_RDPS_SpecificHumidity_IsbL-0100_RLatLon0.09_PT039H.grib2 2026-04-20 02:50 409K
20260420T00Z_MSC_RDPS_SpecificHumidity_IsbL-0150_RLatLon0.09_PT039H.grib2 2026-04-20 02:50 549K
20260420T00Z_MSC_RDPS_SpecificHumidity_IsbL-0175_RLatLon0.09_PT039H.grib2 2026-04-20 02:50 527K
20260420T00Z_MSC_RDPS_SpecificHumidity_IsbL-0200_RLatLon0.09_PT039H.grib2 2026-04-20 02:50 551K
20260420T00Z_MSC_RDPS_SpecificHumidity_IsbL-0225_RLatLon0.09_PT039H.grib2 2026-04-20 02:50 553K
20260420T00Z_MSC_RDPS_SpecificHumidity_IsbL-0250_RLatLon0.09_PT039H.grib2 2026-04-20 02:50 547K
20260420T00Z_MSC_RDPS_SpecificHumidity_IsbL-0275_RLatLon0.09_PT039H.grib2 2026-04-20 02:50 464K
20260420T00Z_MSC_RDPS_SpecificHumidity_IsbL-0300_RLatLon0.09_PT039H.grib2 2026-04-20 02:50 535K
20260420T00Z_MSC_RDPS_SpecificHumidity_IsbL-0350_RLatLon0.09_PT039H.grib2 2026-04-20 02:50 532K
20260420T00Z_MSC_RDPS_SpecificHumidity_IsbL-0400_RLatLon0.09_PT039H.grib2 2026-04-20 02:50 516K
20260420T00Z_MSC_RDPS_SpecificHumidity_IsbL-0450_RLatLon0.09_PT039H.grib2 2026-04-20 02:50 572K
20260420T00Z_MSC_RDPS_SpecificHumidity_IsbL-0500_RLatLon0.09_PT039H.grib2 2026-04-20 02:50 516K
20260420T00Z_MSC_RDPS_SpecificHumidity_IsbL-0550_RLatLon0.09_PT039H.grib2 2026-04-20 02:50 577K
20260420T00Z_MSC_RDPS_SpecificHumidity_IsbL-0600_RLatLon0.09_PT039H.grib2 2026-04-20 02:50 647K
20260420T00Z_MSC_RDPS_SpecificHumidity_IsbL-0650_RLatLon0.09_PT039H.grib2 2026-04-20 02:50 553K
20260420T00Z_MSC_RDPS_SpecificHumidity_IsbL-0700_RLatLon0.09_PT039H.grib2 2026-04-20 02:50 583K
20260420T00Z_MSC_RDPS_SpecificHumidity_IsbL-0750_RLatLon0.09_PT039H.grib2 2026-04-20 02:50 636K
20260420T00Z_MSC_RDPS_SpecificHumidity_IsbL-0800_RLatLon0.09_PT039H.grib2 2026-04-20 02:50 714K
20260420T00Z_MSC_RDPS_SpecificHumidity_IsbL-0850_RLatLon0.09_PT039H.grib2 2026-04-20 02:50 793K
20260420T00Z_MSC_RDPS_SpecificHumidity_IsbL-0875_RLatLon0.09_PT039H.grib2 2026-04-20 02:50 809K
20260420T00Z_MSC_RDPS_SpecificHumidity_IsbL-0900_RLatLon0.09_PT039H.grib2 2026-04-20 02:50 818K
20260420T00Z_MSC_RDPS_SpecificHumidity_IsbL-0925_RLatLon0.09_PT039H.grib2 2026-04-20 02:50 821K
20260420T00Z_MSC_RDPS_SpecificHumidity_IsbL-0950_RLatLon0.09_PT039H.grib2 2026-04-20 02:50 824K
20260420T00Z_MSC_RDPS_SpecificHumidity_IsbL-0970_RLatLon0.09_PT039H.grib2 2026-04-20 02:50 684K
20260420T00Z_MSC_RDPS_SpecificHumidity_IsbL-0985_RLatLon0.09_PT039H.grib2 2026-04-20 02:50 679K
20260420T00Z_MSC_RDPS_SpecificHumidity_IsbL-1000_RLatLon0.09_PT039H.grib2 2026-04-20 02:50 672K
20260420T00Z_MSC_RDPS_SpecificHumidity_IsbL-1015_RLatLon0.09_PT039H.grib2 2026-04-20 02:50 663K
20260420T00Z_MSC_RDPS_SpecificHumidity_Sfc_RLatLon0.09_PT039H.grib2 2026-04-20 02:50 321K
20260420T00Z_MSC_RDPS_StormRelativeHelicity_EtaL-10000_RLatLon0.09_PT039H.grib2 2026-04-20 02:50 1.1M
20260420T00Z_MSC_RDPS_StormSeverityIndex_EtaL-10000_RLatLon0.09_PT039H.grib2 2026-04-20 02:50 1.2M
20260420T00Z_MSC_RDPS_Thickness_IsbL-0850to0700_RLatLon0.09_PT039H.grib2 2026-04-20 02:50 180K
20260420T00Z_MSC_RDPS_Thickness_IsbL-1000to0500_RLatLon0.09_PT039H.grib2 2026-04-20 02:50 205K
20260420T00Z_MSC_RDPS_Thickness_IsbL-1000to0850_RLatLon0.09_PT039H.grib2 2026-04-20 02:50 191K
20260420T00Z_MSC_RDPS_TotalCloudCover_Sfc_RLatLon0.09_PT039H.grib2 2026-04-20 02:50 655K
20260420T00Z_MSC_RDPS_TotalTotalsIndex_Sfc_RLatLon0.09_PT039H.grib2 2026-04-20 02:50 2.4M
20260420T00Z_MSC_RDPS_UVIndex-ClearSky_Sfc_RLatLon0.09_PT039H.grib2 2026-04-20 02:50 175K
20260420T00Z_MSC_RDPS_UVIndex_Sfc_RLatLon0.09_PT039H.grib2 2026-04-20 02:50 404K
20260420T00Z_MSC_RDPS_UpwardLongwaveRadiationFlux_NTAtm_RLatLon0.09_PT039H.grib2 2026-04-20 02:50 485K
20260420T00Z_MSC_RDPS_UpwardShortwaveRadiationFlux_NTAtm_RLatLon0.09_PT039H.grib2 2026-04-20 02:50 457K
20260420T00Z_MSC_RDPS_VerticalVelocity_IsbL-0250_RLatLon0.09_PT039H.grib2 2026-04-20 02:50 588K
20260420T00Z_MSC_RDPS_VerticalVelocity_IsbL-0500_RLatLon0.09_PT039H.grib2 2026-04-20 02:50 556K
20260420T00Z_MSC_RDPS_VerticalVelocity_IsbL-0700_RLatLon0.09_PT039H.grib2 2026-04-20 02:50 563K
20260420T00Z_MSC_RDPS_VerticalVelocity_IsbL-0850_RLatLon0.09_PT039H.grib2 2026-04-20 02:50 698K
20260420T00Z_MSC_RDPS_VerticalWindShear_EtaL-6500_RLatLon0.09_PT039H.grib2 2026-04-20 02:50 1.2M
20260420T00Z_MSC_RDPS_WindChill_Sfc_RLatLon0.09_PT039H.grib2 2026-04-20 02:50 1.3M
20260420T00Z_MSC_RDPS_WindDir_AGL-10m_RLatLon0.09_PT039H.grib2 2026-04-20 02:50 1.0M
20260420T00Z_MSC_RDPS_WindDir_AGL-120m_RLatLon0.09_PT039H.grib2 2026-04-20 02:50 620K
20260420T00Z_MSC_RDPS_WindDir_AGL-40m_RLatLon0.09_PT039H.grib2 2026-04-20 02:50 643K
20260420T00Z_MSC_RDPS_WindDir_AGL-80m_RLatLon0.09_PT039H.grib2 2026-04-20 02:50 629K
20260420T00Z_MSC_RDPS_WindDir_IsbL-0001_RLatLon0.09_PT039H.grib2 2026-04-20 02:50 267K
20260420T00Z_MSC_RDPS_WindDir_IsbL-0005_RLatLon0.09_PT039H.grib2 2026-04-20 02:50 352K
20260420T00Z_MSC_RDPS_WindDir_IsbL-0010_RLatLon0.09_PT039H.grib2 2026-04-20 02:50 387K
20260420T00Z_MSC_RDPS_WindDir_IsbL-0020_RLatLon0.09_PT039H.grib2 2026-04-20 02:50 393K
20260420T00Z_MSC_RDPS_WindDir_IsbL-0030_RLatLon0.09_PT039H.grib2 2026-04-20 02:50 414K
20260420T00Z_MSC_RDPS_WindDir_IsbL-0050_RLatLon0.09_PT039H.grib2 2026-04-20 02:50 431K
20260420T00Z_MSC_RDPS_WindDir_IsbL-0100_RLatLon0.09_PT039H.grib2 2026-04-20 02:50 420K
20260420T00Z_MSC_RDPS_WindDir_IsbL-0150_RLatLon0.09_PT039H.grib2 2026-04-20 02:50 420K
20260420T00Z_MSC_RDPS_WindDir_IsbL-0175_RLatLon0.09_PT039H.grib2 2026-04-20 02:50 440K
20260420T00Z_MSC_RDPS_WindDir_IsbL-0200_RLatLon0.09_PT039H.grib2 2026-04-20 02:50 448K
20260420T00Z_MSC_RDPS_WindDir_IsbL-0225_RLatLon0.09_PT039H.grib2 2026-04-20 02:50 447K
20260420T00Z_MSC_RDPS_WindDir_IsbL-0250_RLatLon0.09_PT039H.grib2 2026-04-20 02:50 443K
20260420T00Z_MSC_RDPS_WindDir_IsbL-0275_RLatLon0.09_PT039H.grib2 2026-04-20 02:50 459K
20260420T00Z_MSC_RDPS_WindDir_IsbL-0300_RLatLon0.09_PT039H.grib2 2026-04-20 02:50 456K
20260420T00Z_MSC_RDPS_WindDir_IsbL-0350_RLatLon0.09_PT039H.grib2 2026-04-20 02:50 478K
20260420T00Z_MSC_RDPS_WindDir_IsbL-0400_RLatLon0.09_PT039H.grib2 2026-04-20 02:50 495K
20260420T00Z_MSC_RDPS_WindDir_IsbL-0450_RLatLon0.09_PT039H.grib2 2026-04-20 02:50 516K
20260420T00Z_MSC_RDPS_WindDir_IsbL-0500_RLatLon0.09_PT039H.grib2 2026-04-20 02:50 536K
20260420T00Z_MSC_RDPS_WindDir_IsbL-0550_RLatLon0.09_PT039H.grib2 2026-04-20 02:50 556K
20260420T00Z_MSC_RDPS_WindDir_IsbL-0600_RLatLon0.09_PT039H.grib2 2026-04-20 02:50 581K
20260420T00Z_MSC_RDPS_WindDir_IsbL-0650_RLatLon0.09_PT039H.grib2 2026-04-20 02:50 616K
20260420T00Z_MSC_RDPS_WindDir_IsbL-0700_RLatLon0.09_PT039H.grib2 2026-04-20 02:50 657K
20260420T00Z_MSC_RDPS_WindDir_IsbL-0750_RLatLon0.09_PT039H.grib2 2026-04-20 02:50 708K
20260420T00Z_MSC_RDPS_WindDir_IsbL-0800_RLatLon0.09_PT039H.grib2 2026-04-20 02:50 782K
20260420T00Z_MSC_RDPS_WindDir_IsbL-0850_RLatLon0.09_PT039H.grib2 2026-04-20 02:50 858K
20260420T00Z_MSC_RDPS_WindDir_IsbL-0875_RLatLon0.09_PT039H.grib2 2026-04-20 02:50 891K
20260420T00Z_MSC_RDPS_WindDir_IsbL-0900_RLatLon0.09_PT039H.grib2 2026-04-20 02:50 912K
20260420T00Z_MSC_RDPS_WindDir_IsbL-0925_RLatLon0.09_PT039H.grib2 2026-04-20 02:50 913K
20260420T00Z_MSC_RDPS_WindDir_IsbL-0950_RLatLon0.09_PT039H.grib2 2026-04-20 02:50 914K
20260420T00Z_MSC_RDPS_WindDir_IsbL-0970_RLatLon0.09_PT039H.grib2 2026-04-20 02:50 923K
20260420T00Z_MSC_RDPS_WindDir_IsbL-0985_RLatLon0.09_PT039H.grib2 2026-04-20 02:50 936K
20260420T00Z_MSC_RDPS_WindDir_IsbL-1000_RLatLon0.09_PT039H.grib2 2026-04-20 02:50 952K
20260420T00Z_MSC_RDPS_WindDir_IsbL-1015_RLatLon0.09_PT039H.grib2 2026-04-20 02:50 968K
20260420T00Z_MSC_RDPS_WindGust-Max_AGL-10m_RLatLon0.09_PT039H.grib2 2026-04-20 02:50 953K
20260420T00Z_MSC_RDPS_WindGust-Min_AGL-10m_RLatLon0.09_PT039H.grib2 2026-04-20 02:50 1.0M
20260420T00Z_MSC_RDPS_WindGust_AGL-10m_RLatLon0.09_PT039H.grib2 2026-04-20 02:50 1.0M
20260420T00Z_MSC_RDPS_WindSpeed_AGL-10m_RLatLon0.09_PT039H.grib2 2026-04-20 02:50 853K
20260420T00Z_MSC_RDPS_WindSpeed_AGL-120m_RLatLon0.09_PT039H.grib2 2026-04-20 02:50 548K
20260420T00Z_MSC_RDPS_WindSpeed_AGL-40m_RLatLon0.09_PT039H.grib2 2026-04-20 02:50 550K
20260420T00Z_MSC_RDPS_WindSpeed_AGL-80m_RLatLon0.09_PT039H.grib2 2026-04-20 02:50 548K
20260420T00Z_MSC_RDPS_WindSpeed_IsbL-0001_RLatLon0.09_PT039H.grib2 2026-04-20 02:50 245K
20260420T00Z_MSC_RDPS_WindSpeed_IsbL-0005_RLatLon0.09_PT039H.grib2 2026-04-20 02:50 299K
20260420T00Z_MSC_RDPS_WindSpeed_IsbL-0010_RLatLon0.09_PT039H.grib2 2026-04-20 02:50 314K
20260420T00Z_MSC_RDPS_WindSpeed_IsbL-0020_RLatLon0.09_PT039H.grib2 2026-04-20 02:50 332K
20260420T00Z_MSC_RDPS_WindSpeed_IsbL-0030_RLatLon0.09_PT039H.grib2 2026-04-20 02:50 332K
20260420T00Z_MSC_RDPS_WindSpeed_IsbL-0050_RLatLon0.09_PT039H.grib2 2026-04-20 02:50 482K
20260420T00Z_MSC_RDPS_WindSpeed_IsbL-0100_RLatLon0.09_PT039H.grib2 2026-04-20 02:50 493K
20260420T00Z_MSC_RDPS_WindSpeed_IsbL-0150_RLatLon0.09_PT039H.grib2 2026-04-20 02:50 381K
20260420T00Z_MSC_RDPS_WindSpeed_IsbL-0175_RLatLon0.09_PT039H.grib2 2026-04-20 02:50 404K
20260420T00Z_MSC_RDPS_WindSpeed_IsbL-0200_RLatLon0.09_PT039H.grib2 2026-04-20 02:50 422K
20260420T00Z_MSC_RDPS_WindSpeed_IsbL-0225_RLatLon0.09_PT039H.grib2 2026-04-20 02:50 428K
20260420T00Z_MSC_RDPS_WindSpeed_IsbL-0250_RLatLon0.09_PT039H.grib2 2026-04-20 02:50 448K
20260420T00Z_MSC_RDPS_WindSpeed_IsbL-0275_RLatLon0.09_PT039H.grib2 2026-04-20 02:50 461K
20260420T00Z_MSC_RDPS_WindSpeed_IsbL-0300_RLatLon0.09_PT039H.grib2 2026-04-20 02:50 457K
20260420T00Z_MSC_RDPS_WindSpeed_IsbL-0350_RLatLon0.09_PT039H.grib2 2026-04-20 02:50 465K
20260420T00Z_MSC_RDPS_WindSpeed_IsbL-0400_RLatLon0.09_PT039H.grib2 2026-04-20 02:50 471K
20260420T00Z_MSC_RDPS_WindSpeed_IsbL-0450_RLatLon0.09_PT039H.grib2 2026-04-20 02:50 459K
20260420T00Z_MSC_RDPS_WindSpeed_IsbL-0500_RLatLon0.09_PT039H.grib2 2026-04-20 02:50 465K
20260420T00Z_MSC_RDPS_WindSpeed_IsbL-0550_RLatLon0.09_PT039H.grib2 2026-04-20 02:50 586K
20260420T00Z_MSC_RDPS_WindSpeed_IsbL-0600_RLatLon0.09_PT039H.grib2 2026-04-20 02:50 596K
20260420T00Z_MSC_RDPS_WindSpeed_IsbL-0650_RLatLon0.09_PT039H.grib2 2026-04-20 02:50 613K
20260420T00Z_MSC_RDPS_WindSpeed_IsbL-0700_RLatLon0.09_PT039H.grib2 2026-04-20 02:50 636K
20260420T00Z_MSC_RDPS_WindSpeed_IsbL-0750_RLatLon0.09_PT039H.grib2 2026-04-20 02:50 666K
20260420T00Z_MSC_RDPS_WindSpeed_IsbL-0800_RLatLon0.09_PT039H.grib2 2026-04-20 02:50 718K
20260420T00Z_MSC_RDPS_WindSpeed_IsbL-0850_RLatLon0.09_PT039H.grib2 2026-04-20 02:50 820K
20260420T00Z_MSC_RDPS_WindSpeed_IsbL-0875_RLatLon0.09_PT039H.grib2 2026-04-20 02:50 842K
20260420T00Z_MSC_RDPS_WindSpeed_IsbL-0900_RLatLon0.09_PT039H.grib2 2026-04-20 02:50 858K
20260420T00Z_MSC_RDPS_WindSpeed_IsbL-0925_RLatLon0.09_PT039H.grib2 2026-04-20 02:50 866K
20260420T00Z_MSC_RDPS_WindSpeed_IsbL-0950_RLatLon0.09_PT039H.grib2 2026-04-20 02:50 865K
20260420T00Z_MSC_RDPS_WindSpeed_IsbL-0970_RLatLon0.09_PT039H.grib2 2026-04-20 02:50 866K
20260420T00Z_MSC_RDPS_WindSpeed_IsbL-0985_RLatLon0.09_PT039H.grib2 2026-04-20 02:50 863K
20260420T00Z_MSC_RDPS_WindSpeed_IsbL-1000_RLatLon0.09_PT039H.grib2 2026-04-20 02:50 862K
20260420T00Z_MSC_RDPS_WindSpeed_IsbL-1015_RLatLon0.09_PT039H.grib2 2026-04-20 02:50 855K
20260420T00Z_MSC_RDPS_WindU_AGL-10m_RLatLon0.09_PT039H.grib2 2026-04-20 02:50 438K
20260420T00Z_MSC_RDPS_WindU_AGL-120m_RLatLon0.09_PT039H.grib2 2026-04-20 02:50 425K
20260420T00Z_MSC_RDPS_WindU_AGL-40m_RLatLon0.09_PT039H.grib2 2026-04-20 02:50 544K
20260420T00Z_MSC_RDPS_WindU_AGL-80m_RLatLon0.09_PT039H.grib2 2026-04-20 02:50 543K
20260420T00Z_MSC_RDPS_WindU_IsbL-0001_RLatLon0.09_PT039H.grib2 2026-04-20 02:50 288K
20260420T00Z_MSC_RDPS_WindU_IsbL-0005_RLatLon0.09_PT039H.grib2 2026-04-20 02:50 334K
20260420T00Z_MSC_RDPS_WindU_IsbL-0010_RLatLon0.09_PT039H.grib2 2026-04-20 02:50 347K
20260420T00Z_MSC_RDPS_WindU_IsbL-0020_RLatLon0.09_PT039H.grib2 2026-04-20 02:50 363K
20260420T00Z_MSC_RDPS_WindU_IsbL-0030_RLatLon0.09_PT039H.grib2 2026-04-20 02:50 362K
20260420T00Z_MSC_RDPS_WindU_IsbL-0050_RLatLon0.09_PT039H.grib2 2026-04-20 02:50 367K
20260420T00Z_MSC_RDPS_WindU_IsbL-0100_RLatLon0.09_PT039H.grib2 2026-04-20 02:50 449K
20260420T00Z_MSC_RDPS_WindU_IsbL-0150_RLatLon0.09_PT039H.grib2 2026-04-20 02:50 375K
20260420T00Z_MSC_RDPS_WindU_IsbL-0175_RLatLon0.09_PT039H.grib2 2026-04-20 02:50 420K
20260420T00Z_MSC_RDPS_WindU_IsbL-0200_RLatLon0.09_PT039H.grib2 2026-04-20 02:50 435K
20260420T00Z_MSC_RDPS_WindU_IsbL-0225_RLatLon0.09_PT039H.grib2 2026-04-20 02:50 439K
20260420T00Z_MSC_RDPS_WindU_IsbL-0250_RLatLon0.09_PT039H.grib2 2026-04-20 02:50 439K
20260420T00Z_MSC_RDPS_WindU_IsbL-0275_RLatLon0.09_PT039H.grib2 2026-04-20 02:50 451K
20260420T00Z_MSC_RDPS_WindU_IsbL-0300_RLatLon0.09_PT039H.grib2 2026-04-20 02:50 345K
20260420T00Z_MSC_RDPS_WindU_IsbL-0350_RLatLon0.09_PT039H.grib2 2026-04-20 02:50 352K
20260420T00Z_MSC_RDPS_WindU_IsbL-0400_RLatLon0.09_PT039H.grib2 2026-04-20 02:50 460K
20260420T00Z_MSC_RDPS_WindU_IsbL-0450_RLatLon0.09_PT039H.grib2 2026-04-20 02:50 464K
20260420T00Z_MSC_RDPS_WindU_IsbL-0500_RLatLon0.09_PT039H.grib2 2026-04-20 02:50 469K
20260420T00Z_MSC_RDPS_WindU_IsbL-0550_RLatLon0.09_PT039H.grib2 2026-04-20 02:50 473K
20260420T00Z_MSC_RDPS_WindU_IsbL-0600_RLatLon0.09_PT039H.grib2 2026-04-20 02:50 480K
20260420T00Z_MSC_RDPS_WindU_IsbL-0650_RLatLon0.09_PT039H.grib2 2026-04-20 02:50 495K
20260420T00Z_MSC_RDPS_WindU_IsbL-0700_RLatLon0.09_PT039H.grib2 2026-04-20 02:50 514K
20260420T00Z_MSC_RDPS_WindU_IsbL-0750_RLatLon0.09_PT039H.grib2 2026-04-20 02:50 541K
20260420T00Z_MSC_RDPS_WindU_IsbL-0800_RLatLon0.09_PT039H.grib2 2026-04-20 02:50 586K
20260420T00Z_MSC_RDPS_WindU_IsbL-0850_RLatLon0.09_PT039H.grib2 2026-04-20 02:50 635K
20260420T00Z_MSC_RDPS_WindU_IsbL-0875_RLatLon0.09_PT039H.grib2 2026-04-20 02:50 653K
20260420T00Z_MSC_RDPS_WindU_IsbL-0900_RLatLon0.09_PT039H.grib2 2026-04-20 02:50 664K
20260420T00Z_MSC_RDPS_WindU_IsbL-0925_RLatLon0.09_PT039H.grib2 2026-04-20 02:50 662K
20260420T00Z_MSC_RDPS_WindU_IsbL-0950_RLatLon0.09_PT039H.grib2 2026-04-20 02:50 659K
20260420T00Z_MSC_RDPS_WindU_IsbL-0970_RLatLon0.09_PT039H.grib2 2026-04-20 02:50 658K
20260420T00Z_MSC_RDPS_WindU_IsbL-0985_RLatLon0.09_PT039H.grib2 2026-04-20 02:50 800K
20260420T00Z_MSC_RDPS_WindU_IsbL-1000_RLatLon0.09_PT039H.grib2 2026-04-20 02:50 800K
20260420T00Z_MSC_RDPS_WindU_IsbL-1015_RLatLon0.09_PT039H.grib2 2026-04-20 02:50 794K
20260420T00Z_MSC_RDPS_WindV_AGL-10m_RLatLon0.09_PT039H.grib2 2026-04-20 02:50 439K
20260420T00Z_MSC_RDPS_WindV_AGL-120m_RLatLon0.09_PT039H.grib2 2026-04-20 02:50 424K
20260420T00Z_MSC_RDPS_WindV_AGL-40m_RLatLon0.09_PT039H.grib2 2026-04-20 02:50 544K
20260420T00Z_MSC_RDPS_WindV_AGL-80m_RLatLon0.09_PT039H.grib2 2026-04-20 02:50 542K
20260420T00Z_MSC_RDPS_WindV_IsbL-0001_RLatLon0.09_PT039H.grib2 2026-04-20 02:50 288K
20260420T00Z_MSC_RDPS_WindV_IsbL-0005_RLatLon0.09_PT039H.grib2 2026-04-20 02:50 330K
20260420T00Z_MSC_RDPS_WindV_IsbL-0010_RLatLon0.09_PT039H.grib2 2026-04-20 02:50 305K
20260420T00Z_MSC_RDPS_WindV_IsbL-0020_RLatLon0.09_PT039H.grib2 2026-04-20 02:50 365K
20260420T00Z_MSC_RDPS_WindV_IsbL-0030_RLatLon0.09_PT039H.grib2 2026-04-20 02:50 329K
20260420T00Z_MSC_RDPS_WindV_IsbL-0050_RLatLon0.09_PT039H.grib2 2026-04-20 02:50 399K
20260420T00Z_MSC_RDPS_WindV_IsbL-0100_RLatLon0.09_PT039H.grib2 2026-04-20 02:50 343K
20260420T00Z_MSC_RDPS_WindV_IsbL-0150_RLatLon0.09_PT039H.grib2 2026-04-20 02:50 393K
20260420T00Z_MSC_RDPS_WindV_IsbL-0175_RLatLon0.09_PT039H.grib2 2026-04-20 02:50 321K
20260420T00Z_MSC_RDPS_WindV_IsbL-0200_RLatLon0.09_PT039H.grib2 2026-04-20 02:50 334K
20260420T00Z_MSC_RDPS_WindV_IsbL-0225_RLatLon0.09_PT039H.grib2 2026-04-20 02:50 337K
20260420T00Z_MSC_RDPS_WindV_IsbL-0250_RLatLon0.09_PT039H.grib2 2026-04-20 02:50 338K
20260420T00Z_MSC_RDPS_WindV_IsbL-0275_RLatLon0.09_PT039H.grib2 2026-04-20 02:50 374K
20260420T00Z_MSC_RDPS_WindV_IsbL-0300_RLatLon0.09_PT039H.grib2 2026-04-20 02:50 370K
20260420T00Z_MSC_RDPS_WindV_IsbL-0350_RLatLon0.09_PT039H.grib2 2026-04-20 02:50 376K
20260420T00Z_MSC_RDPS_WindV_IsbL-0400_RLatLon0.09_PT039H.grib2 2026-04-20 02:50 357K
20260420T00Z_MSC_RDPS_WindV_IsbL-0450_RLatLon0.09_PT039H.grib2 2026-04-20 02:50 361K
20260420T00Z_MSC_RDPS_WindV_IsbL-0500_RLatLon0.09_PT039H.grib2 2026-04-20 02:50 365K
20260420T00Z_MSC_RDPS_WindV_IsbL-0550_RLatLon0.09_PT039H.grib2 2026-04-20 02:50 472K
20260420T00Z_MSC_RDPS_WindV_IsbL-0600_RLatLon0.09_PT039H.grib2 2026-04-20 02:50 479K
20260420T00Z_MSC_RDPS_WindV_IsbL-0650_RLatLon0.09_PT039H.grib2 2026-04-20 02:50 493K
20260420T00Z_MSC_RDPS_WindV_IsbL-0700_RLatLon0.09_PT039H.grib2 2026-04-20 02:50 513K
20260420T00Z_MSC_RDPS_WindV_IsbL-0750_RLatLon0.09_PT039H.grib2 2026-04-20 02:50 525K
20260420T00Z_MSC_RDPS_WindV_IsbL-0800_RLatLon0.09_PT039H.grib2 2026-04-20 02:50 573K
20260420T00Z_MSC_RDPS_WindV_IsbL-0850_RLatLon0.09_PT039H.grib2 2026-04-20 02:50 625K
20260420T00Z_MSC_RDPS_WindV_IsbL-0875_RLatLon0.09_PT039H.grib2 2026-04-20 02:50 643K
20260420T00Z_MSC_RDPS_WindV_IsbL-0900_RLatLon0.09_PT039H.grib2 2026-04-20 02:50 655K
20260420T00Z_MSC_RDPS_WindV_IsbL-0925_RLatLon0.09_PT039H.grib2 2026-04-20 02:50 659K
20260420T00Z_MSC_RDPS_WindV_IsbL-0950_RLatLon0.09_PT039H.grib2 2026-04-20 02:50 656K
20260420T00Z_MSC_RDPS_WindV_IsbL-0970_RLatLon0.09_PT039H.grib2 2026-04-20 02:50 658K
20260420T00Z_MSC_RDPS_WindV_IsbL-0985_RLatLon0.09_PT039H.grib2 2026-04-20 02:50 659K
20260420T00Z_MSC_RDPS_WindV_IsbL-1000_RLatLon0.09_PT039H.grib2 2026-04-20 02:50 798K
20260420T00Z_MSC_RDPS_WindV_IsbL-1015_RLatLon0.09_PT039H.grib2 2026-04-20 02:50 794K